Weather History for Rome Ciampino, Italy

Change the Weather History Date:

Sunday, August 17, 2014

  Actual Average Record
Temperature  
Mean Temperature 72 °F -  
Max Temperature 82 °F 83 °F 96 °F (2003)
Min Temperature 63 °F 61 °F 60 °F (2005)
Cooling Degree Days 8    
Growing Degree Days 22 (Base 50)    
Moisture  
Dew Point 58 °F    
Average Humidity 61    
Maximum Humidity 88    
Minimum Humidity 15    
Precipitation  
Precipitation 0.00 in 0.07 in - ()
Sea Level Pressure  
Sea Level Pressure 29.99 in    
Wind  
Wind Speed 4 mph ()    
Max Wind Speed 9 mph    
Max Gust Speed -    
Visibility 7.7 miles    
Events      
Averages and records for this station are not official NWS values.
T = Trace of Precipitation, MM = Missing Value Source: Averaged Metar Reports

Daily Weather History Graph

Daily Weather History Graph

Search for Another Location

Airport:

Trip Planner

Search our weather history database for the weather conditions in past years. The results will help you decide how hot, cold, wet, or windy it might be!

Date:

Astronomy

Aug. 17, 2014 Rise Set
Actual Time 6:19 AM CEST 8:07 PM CEST
Civil Twilight 5:49 AM CEST 8:36 PM CEST
Nautical Twilight 5:13 AM CEST 9:12 PM CEST
Astronomical Twilight 4:34 AM CEST 9:51 PM CEST
Moon No Moon Rise 1:55 PM CEST (8/17)
Length of Visible Light 14h 46m
Length of Day
13h 47m
Waning Gibbous, 51% of the Moon is Illuminated
Aug 17
Waning Gibbous
Aug 17
Last Quarter
Aug 25
New
Sep 2
First Quarter
Sep 9
Full

Hourly Weather History & Observations

Time (CEST) Temp. Heat Index Dew Point Humidity Pressure Visibility Wind Dir Wind Speed Gust Speed Precip Events Conditions
12:15 AM 71.6 °F - 64.4 °F 78% 29.98 in - Calm Calm - N/A   Clear
12:45 AM 69.8 °F - 62.6 °F 78% 29.98 in - North 3.5 mph - N/A   Clear
1:15 AM 69.8 °F - 60.8 °F 73% 29.98 in - North 4.6 mph - N/A   Clear
1:45 AM 69.8 °F - 59.0 °F 68% 29.98 in - North 4.6 mph - N/A   Clear
2:00 AM 69 °F - 60 °F 64% 29.99 in 7 mi North 4.6 mph - -  
2:15 AM 68.0 °F - 59.0 °F 73% 29.98 in - NNE 2.3 mph - N/A   Clear
2:45 AM 68.0 °F - 60.8 °F 78% 29.98 in - NNE 4.6 mph - N/A   Clear
3:15 AM 68.0 °F - 60.8 °F 78% 29.98 in - NNE 3.5 mph - N/A   Clear
3:45 AM 68.0 °F - 59.0 °F 73% 29.98 in - North 2.3 mph - N/A   Clear
4:15 AM 68.0 °F - 60.8 °F 78% 29.98 in - North 3.5 mph - N/A   Clear
4:45 AM 66.2 °F - 60.8 °F 83% 29.98 in - East 3.5 mph - N/A   Clear
5:00 AM 67 °F - 60 °F 72% 29.99 in 7 mi East 3.5 mph - -  
5:15 AM 64.4 °F - 60.8 °F 88% 29.98 in - NE 3.5 mph - N/A   Clear
5:45 AM 64.4 °F - 60.8 °F 88% 29.98 in - NNE 2.3 mph - N/A   Clear
6:15 AM 64.4 °F - 59.0 °F 83% 29.98 in - North 3.5 mph - N/A   Clear
6:45 AM 62.6 °F - 59.0 °F 88% 29.98 in - NNE 3.5 mph - N/A   Clear
7:15 AM 64.4 °F - 59.0 °F 83% 29.98 in - NNE 3.5 mph - N/A   Clear
7:45 AM 66.2 °F - 59.0 °F 78% 29.98 in - NE 5.8 mph - N/A   Clear
8:00 AM 66 °F - 59 °F 72% 30.00 in 9 mi NE 5.8 mph - -  
8:15 AM 68.0 °F - 60.8 °F 78% 30.01 in - NNE 6.9 mph - N/A   Clear
8:45 AM 68.0 °F - 60.8 °F 78% 30.01 in - NNE 4.6 mph - N/A   Clear
9:15 AM 69.8 °F - 60.8 °F 73% 30.01 in - NE 5.8 mph - N/A   Clear
9:45 AM 71.6 °F - 60.8 °F 69% 30.01 in - NNE 5.8 mph - N/A   Clear
10:15 AM 73.4 °F - 62.6 °F 69% 30.01 in 6.2 mi NNE 5.8 mph - N/A   Partly Cloudy
10:45 AM 75.2 °F - 62.6 °F 65% 30.01 in 6.2 mi NNE 3.5 mph - N/A   Partly Cloudy
11:00 AM 75 °F - 62 °F 54% 30.01 in 12 mi NNE 3.5 mph - -   Scattered Clouds
11:15 AM 77.0 °F - 60.8 °F 57% 30.01 in 6.2 mi NNE 2.3 mph - N/A   Partly Cloudy
11:45 AM 77.0 °F - 59.0 °F 54% 30.01 in 6.2 mi NW 4.6 mph - N/A   Partly Cloudy
12:15 PM 78.8 °F - 53.6 °F 42% 30.01 in 6.2 mi WNW 5.8 mph - N/A   Partly Cloudy
12:45 PM 80.6 °F - 28.4 °F 15% 30.01 in 6.2 mi NNW 3.5 mph - N/A   Partly Cloudy
1:15 PM 82.4 °F 81.4 °F 53.6 °F 37% 30.01 in 6.2 mi SSE 2.3 mph - N/A   Partly Cloudy
1:45 PM 82.4 °F - 50.0 °F 32% 30.01 in 6.2 mi NNE 2.3 mph - N/A   Partly Cloudy
2:00 PM 82 °F - 50 °F 23% 30.01 in 12 mi NNE 2.3 mph - -   Scattered Clouds
2:15 PM 82.4 °F - 51.8 °F 35% 30.01 in 6.2 mi West 5.8 mph - N/A   Partly Cloudy
2:45 PM 82.4 °F - 51.8 °F 35% 29.98 in 6.2 mi West 9.2 mph - N/A   Partly Cloudy
3:15 PM 80.6 °F - 51.8 °F 37% 29.98 in 6.2 mi West 6.9 mph - N/A   Partly Cloudy
3:45 PM 80.6 °F - 51.8 °F 37% 29.98 in 6.2 mi West 9.2 mph - N/A   Partly Cloudy
4:15 PM 80.6 °F - 51.8 °F 37% 29.98 in 6.2 mi West 6.9 mph - N/A   Partly Cloudy
4:45 PM 80.6 °F - 51.8 °F 37% 29.98 in 6.2 mi West 6.9 mph - N/A   Partly Cloudy
5:00 PM 81 °F - 51 °F 25% 29.99 in 12 mi West 6.9 mph - -   Scattered Clouds
5:15 PM 80.6 °F 80.3 °F 53.6 °F 39% 29.98 in 6.2 mi West 6.9 mph - N/A   Partly Cloudy
5:45 PM 80.6 °F 80.3 °F 53.6 °F 39% 29.98 in - West 8.1 mph - N/A   Clear
6:15 PM 80.6 °F 80.5 °F 55.4 °F 42% 29.98 in - WSW 8.1 mph - N/A   Clear
6:45 PM 78.8 °F - 57.2 °F 47% 29.98 in - West 6.9 mph - N/A   Clear
7:15 PM 78.8 °F - 59.0 °F 51% 29.98 in - West 6.9 mph - N/A   Clear
7:45 PM 77.0 °F - 60.8 °F 57% 29.98 in - WSW 5.8 mph - N/A   Clear
8:00 PM 78 °F - 62 °F 47% 29.98 in 12 mi WSW 5.8 mph - -  
8:15 PM 75.2 °F - 60.8 °F 61% 29.98 in - SW 3.5 mph - N/A   Clear
8:45 PM 73.4 °F - 62.6 °F 69% 29.98 in - SSW 2.3 mph - N/A   Clear
9:15 PM 73.4 °F - 62.6 °F 69% 29.98 in - South 3.5 mph - N/A   Clear
9:45 PM 71.6 °F - 60.8 °F 69% 29.98 in - South 3.5 mph - N/A   Clear
10:15 PM 71.6 °F - 62.6 °F 73% 29.98 in - SSE 3.5 mph - N/A   Clear
10:45 PM 71.6 °F - 62.6 °F 73% 29.98 in - SSE 4.6 mph - N/A   Clear
11:00 PM 72 °F - 63 °F 67% 29.99 in 12 mi SSE 4.6 mph - -  
11:15 PM 71.6 °F - 64.4 °F 78% 29.98 in - SSE 4.6 mph - N/A   Clear
11:45 PM 71.6 °F - 64.4 °F 78% 29.98 in - SSE 3.5 mph - N/A   Clear